Regional Weather Roundup
Issued by NWS

Home | Current Version | Previous Version | Text Only | Print | Product List | Glossary Off
Versions: 1 2 3 4 5 6 7 8 9 10 11 12 13 14 15 16 17 18 19 20 21 22 23 24 25 26 27 28 29 30 31 32 33 34 35 36 37 38 39 40 41 42 43 44 45 46 47 48 49 50

000
ASUS43 KFSD 270002
RWRSD

WEATHER ROUNDUP FOR SOUTH DAKOTA
NATIONAL WEATHER SERVICE SIOUX FALLS SD
700 PM CDT TUE JUL 26 2016

NOTE: "FAIR" INDICATES FEW OR NO CLOUDS BELOW 12,000 FEET WITH NO
SIGNIFICANT WEATHER AND/OR OBSTRUCTIONS TO VISIBILITY.


SDZ001>005-009-010-012>017-270100-
NORTHWEST AND NORTH CENTRAL SOUTH DAKOTA

CITY           SKY/WX    TMP DP  RH WIND       PRES   REMARKS
BUFFALO          N/A     85  55  35 NE20      29.98S
FAITH            N/A     83  54  36 NE20      29.99F
MOBRIDGE       MOSUNNY   85  66  53 E6        29.92F
$$

SDZ012>016-024>037-041>051-057-063-072>074-270100-
SOUTHWEST AND SOUTH CENTRAL SOUTH DAKOTA

CITY           SKY/WX    TMP DP  RH WIND       PRES   REMARKS
RAPID CTY ARPT PTSUNNY   85  47  26 E5G22     29.96F
PIERRE         LGT RAIN  76  67  73 SE14G24   29.90S
CUSTER         LGT RAIN  60  54  80 N12       30.16F
PHILIP         CLOUDY    91  59  33 NE8       29.93R
PINE RIDGE     MOSUNNY   94  59  31 E9        29.92F
WINNER         MOCLDY    88  61  40 E7        29.89F
$$

SDZ004>011-016>023-039-040-270100-
NORTHEAST SOUTH DAKOTA

CITY           SKY/WX    TMP DP  RH WIND       PRES   REMARKS
ABERDEEN       MOSUNNY   78  68  71 SE7       29.93F
WATERTOWN      CLOUDY    76  65  68 S9        29.96F
BROOKINGS      CLOUDY    75  71  87 NE5       29.97F
SISSETON         N/A     73  68  84 N3        29.95R
$$

SDZ017-020-022-023-036>040-048>070-270100-
SOUTHEAST SOUTH DAKOTA

CITY           SKY/WX    TMP DP  RH WIND       PRES   REMARKS
SIOUX FALLS    PTSUNNY   84  65  52 S12       29.97F
HURON          CLOUDY    80  66  62 SE13      29.91F
CHAMBERLAIN    LGT RAIN  78  71  78 N7G17     29.92R
MITCHELL       MOSUNNY   86  61  42 S9        29.95R
YANKTON        SUNNY     84  64  51 SE13      29.95F
$$

ABBREVIATIONS USED IN REMARKS
   TC - TEMPERATURE IN CELSIUS
  WCI - WIND CHILL INDEX
   HX - HEAT INDEX
  VSB - VISIBILITY





USA.gov is the U.S. government's official web portal to all federal, state and local government web resources and services.